User: anonymous   Login
Location: Bishop�s Knoyle
(51.0728°N, 2.1714°W)
Time: 11:52:09
(UTC+00:00)
Language:

SPOT 5 - Orbit

View from above orbital plane
View from above orbital plane
View from above satellite
View from above satellite

Ground track
Ground track

The orbit data is extracted from the following two-line orbital elements,

1 27421U 02021A   20330.10579692  .00000045  00000-0  20938-4 0  9993
2 27421  98.2558  38.4411 0136176  71.7203 289.8761 14.52063224968069
Epoch (UTC): 25 November 2020 02:32:20
Eccentricity: 0.0136176
inclination: 98.2558°
perigee height: 622 km
apogee height: 815 km
right ascension of ascending node: 38.4411°
argument of perigee: 71.7203°
revolutions per day: 14.52063224
mean anomaly at epoch: 289.8761°
orbit number at epoch: 96806

The dashed part of the orbit path shows where the satellite is in the earth's shadow,  

DLR